Regional Weather Roundup
Issued by NWS State College, PA

Home | Current Version | Previous Version | Graphics & Text | Print | Product List | Glossary On
Versions: 1 2 3 4 5 6 7 8 9 10 11 12 13 14 15 16 17 18 19 20 21 22 23 24 25 26 27 28 29 30 31 32 33 34 35 36 37 38 39 40 41 42 43 44 45 46 47 48 49 50
000
ASUS41 KCTP 041610
RWRCTP

REGIONAL WEATHER ROUNDUP
NATIONAL WEATHER SERVICE STATE COLLEGE PA
1200 PM EDT FRI SEP 04 2015

Note: "fair" indicates few or no clouds below 12,000 feet with no
significant weather and/or obstructions to visibility.

* = STATION THAT DOES NOT REPORT PRECIPITATION /E.G. RAIN...SNOW...ETC/
    THUNDER OR FOG.

PAZ002>004-007>009-013>016-020>023-029>032-041700-
WESTERN PENNSYLVANIA

CITY           SKY/WX    TMP DP  RH WIND       PRES   REMARKS
ERIE           SUNNY     84  63  49 SW6       30.06F
MEADVILLE      MOSUNNY   80  61  52 SW3       30.10S
FRANKLIN*      MOSUNNY   79  64  61 CALM      30.13S
NEW CASTLE     FAIR      81  67  62 CALM      30.11R
BEAVER COUNTY  SUNNY     81  63  54 S3        30.11S
BUTLER*        MOSUNNY   81  64  57 S5        30.13S
PITTSBURGH INT PTSUNNY   81  61  50 CALM      30.11S
PITTSBURGH     SUNNY     80  61  52 VRB3      30.11S
INDIANA*       SUNNY     81  68  65 CALM      30.14S
LATROBE        MOSUNNY   81  70  69 W7        30.12S
WASHINGTON CO* MOSUNNY   82  57  42 S3        30.12S
$$

PAZ004>006-010>012-017>019-024>028-033>037-041-042-045-046-049>053-041700-
CENTRAL PENNSYLVANIA

CITY           SKY/WX    TMP DP  RH WIND       PRES   REMARKS
BRADFORD       PTSUNNY   81  65  58 VRB3      30.14
DUBOIS         SUNNY     82  65  56 VRB6      30.12S
CLEARFIELD     SUNNY     81  67  62 VRB3      30.13S
JOHNSTOWN      MOSUNNY   79  65  62 SW5       30.15S
ALTOONA        SUNNY     83  66  56 VRB5      30.12S
STATE COLLEGE  MOSUNNY   79  70  73 CALM      30.12S
WILLIAMSPORT   PTSUNNY   83  69  62 VRB5      30.08S
SELINSGROVE    SUNNY     84  69  60 CALM      30.08S
FT INDIANTOWN  SUNNY     84  69  59 E6        30.06S
CAPITAL CITY   SUNNY     85  68  56 SE5       30.06R
HARRISBURG     SUNNY     87  67  51 CALM      30.05R
YORK           SUNNY     84  70  62 NE6       30.06R
$$

PAZ038>040-043-044-047-048-054-055-060>062-067>071-041700-
EASTERN PENNSYLVANIA

CITY           SKY/WX    TMP DP  RH WIND       PRES   REMARKS
SCRANTON       MOSUNNY   82  68  62 E5        30.10S
MOUNT POCONO   MOSUNNY   76  66  71 SE9       30.16R
ALLENTOWN      SUNNY     84  69  60 NE8G16    30.08R
QUAKERTOWN*    SUNNY     84  70  61 E7        30.09R
READING        MOSUNNY   85  69  58 NE5       30.05R
LANCASTER      SUNNY     87  68  52 VRB5      30.06R
COATESVILLE    SUNNY     84  68  58 E3        30.08R
POTTSTOWN      CLOUDY    83  70  64 CALM      30.08R
BLUE BELL      SUNNY     88  72  58 NE8       30.06R
DOYLESTOWN     MOSUNNY   83  69  62 VRB7      30.07R
WILLOW GROVE   NOT AVBL
NORTH PHILA    MOSUNNY   89  67  47 NE14      30.07R
PHILADELPHIA   MOSUNNY   89  67  47 E10       30.04R
$$


USA.gov is the U.S. government's official web portal to all federal, state and local government web resources and services.